Location: Bun Machan
(52.1403°N, 7.3744°W)
Time: 00:26:59
(UTC+00:00)

Cosmos 1707 Rocket - Pass Details

Date: 14 July 2020
Orbit: 604 x 632 km, 82.5° (Epoch: 11 August)

Event Time Altitude Azimuth Distance (km) Brightness Sun altitude
Rises 01:00:53 0° 344° (NNW) 2,933 8.3 -16.0°
Reaches altitude 10° 01:03:13 10° 338° (NNW) 2,017 7.1 -16.0°
Maximum altitude 01:07:25 42° 268° (W) 893 4.3 -15.9°
Enters shadow 01:09:26 26° 214° (SSW) 1,239 4.6 -15.9°
